When you browse on this site, cookies collect data to enhance your experience and personalize the content and advertising you see.
Visit our Privacy Policy to learn more. By continuing to use the site, you agree to this use of cookies and data.

Previsão horária em Evanovo

Hoje, 10 Julho, Sexta-feira

Tempo Temperatura Precipitação Vento Pressão Humidade
00:00 +10°C° 0 mm 2 m/s 756 mmHg 91%
01:00 +9°C° 0 mm 2 m/s 756 mmHg 93%
02:00 +9°C° 0 mm 2 m/s 757 mmHg 95%
03:00 +9°C° 0 mm 2 m/s 757 mmHg 94%
04:00 +9°C° 0 mm 2 m/s 757 mmHg 93%
05:00 +10°C° 0 mm 2 m/s 757 mmHg 91%
06:00 +12°C° 0 mm 2 m/s 757 mmHg 84%
07:00 +13°C° 0 mm 3 m/s 757 mmHg 77%
08:00 +16°C° 0 mm 3 m/s 756 mmHg 70%
09:00 +16°C° 0.3 mm 3 m/s 756 mmHg 74%
10:00 +16°C° 0.3 mm 3 m/s 756 mmHg 78%
11:00 +16°C° 0.3 mm 3 m/s 756 mmHg 83%
12:00 +16°C° 0.6 mm 3 m/s 755 mmHg 87%
13:00 +14°C° 0.6 mm 3 m/s 755 mmHg 91%
14:00 +13°C° 0.6 mm 3 m/s 754 mmHg 95%
15:00 +13°C° 0.5 mm 3 m/s 754 mmHg 96%
16:00 +14°C° 0.5 mm 3 m/s 754 mmHg 96%
17:00 +14°C° 0.5 mm 3 m/s 753 mmHg 97%
18:00 +15°C° 0 mm 2 m/s 753 mmHg 97%
19:00 +16°C° 0 mm 1 m/s 753 mmHg 97%
20:00 +16°C° 0 mm 1 m/s 752 mmHg 97%
21:00 +16°C° 0 mm 1 m/s 752 mmHg 98%
22:00 +16°C° 0 mm 1 m/s 752 mmHg 98%
23:00 +15°C° 0 mm 1 m/s 752 mmHg 98%

Amanhã, 11 Julho, Sábado

Tempo Temperatura Precipitação Vento Pressão Humidade
00:00 +15°C° 0 mm 1 m/s 752 mmHg 98%
01:00 +15°C° 0 mm 1 m/s 752 mmHg 98%
02:00 +15°C° 0 mm 2 m/s 752 mmHg 98%
03:00 +16°C° 0.1 mm 2 m/s 751 mmHg 98%
04:00 +16°C° 0.1 mm 3 m/s 751 mmHg 98%
05:00 +17°C° 0.1 mm 3 m/s 750 mmHg 98%
06:00 +17°C° 0.2 mm 4 m/s 750 mmHg 96%
07:00 +17°C° 0.2 mm 5 m/s 750 mmHg 94%
08:00 +19°C° 0.2 mm 6 m/s 750 mmHg 93%
09:00 +19°C° 0 mm 6 m/s 751 mmHg 83%
10:00 +18°C° 0 mm 7 m/s 751 mmHg 72%
11:00 +18°C° 0 mm 7 m/s 752 mmHg 62%
12:00 +20°C° 0 mm 8 m/s 752 mmHg 58%
13:00 +20°C° 0 mm 8 m/s 752 mmHg 55%
14:00 +21°C° 0 mm 9 m/s 753 mmHg 51%
15:00 +21°C° 0 mm 8 m/s 754 mmHg 52%
16:00 +20°C° 0 mm 7 m/s 754 mmHg 53%
17:00 +20°C° 0 mm 7 m/s 755 mmHg 54%
18:00 +19°C° 0 mm 5 m/s 755 mmHg 60%
19:00 +17°C° 0 mm 4 m/s 756 mmHg 66%
20:00 +16°C° 0 mm 3 m/s 756 mmHg 72%
21:00 +14°C° 0 mm 3 m/s 757 mmHg 78%
22:00 +13°C° 0 mm 2 m/s 757 mmHg 83%
23:00 +12°C° 0 mm 2 m/s 758 mmHg 89%

Depois de amanhã, 12 Julho, Domingo

Tempo Temperatura Precipitação Vento Pressão Humidade
00:00 +10°C° 0 mm 2 m/s 758 mmHg 91%
01:00 +10°C° 0 mm 2 m/s 758 mmHg 93%
02:00 +10°C° 0 mm 2 m/s 758 mmHg 95%
03:00 +10°C° 0 mm 2 m/s 758 mmHg 93%
04:00 +12°C° 0 mm 2 m/s 758 mmHg 91%
05:00 +12°C° 0 mm 2 m/s 758 mmHg 89%
06:00 +13°C° 0 mm 2 m/s 759 mmHg 84%
07:00 +15°C° 0 mm 2 m/s 759 mmHg 78%
08:00 +16°C° 0 mm 1 m/s 759 mmHg 73%
09:00 +17°C° 0.1 mm 2 m/s 759 mmHg 68%
10:00 +18°C° 0.1 mm 2 m/s 759 mmHg 62%
11:00 +19°C° 0.1 mm 2 m/s 759 mmHg 57%
12:00 +20°C° 0 mm 2 m/s 759 mmHg 54%
13:00 +20°C° 0 mm 2 m/s 758 mmHg 51%
14:00 +21°C° 0 mm 2 m/s 758 mmHg 48%
15:00 +21°C° 0 mm 2 m/s 758 mmHg 49%
16:00 +21°C° 0 mm 2 m/s 758 mmHg 50%
17:00 +20°C° 0 mm 2 m/s 757 mmHg 51%
18:00 +19°C° 0 mm 2 m/s 757 mmHg 59%
19:00 +18°C° 0 mm 2 m/s 758 mmHg 66%
20:00 +17°C° 0 mm 2 m/s 758 mmHg 74%
21:00 +15°C° 0 mm 1 m/s 758 mmHg 78%
22:00 +14°C° 0 mm 1 m/s 758 mmHg 81%
23:00 +13°C° 0 mm 1 m/s 758 mmHg 84%

13 Julho, Segunda-feira

Tempo Temperatura Precipitação Vento Pressão Humidade
00:00 +13°C° 0 mm 1 m/s 758 mmHg 87%
01:00 +12°C° 0 mm 1 m/s 758 mmHg 90%
02:00 +11°C° 0 mm 1 m/s 758 mmHg 92%
03:00 +12°C° 0 mm 1 m/s 758 mmHg 91%
04:00 +12°C° 0 mm 2 m/s 757 mmHg 91%
05:00 +12°C° 0 mm 2 m/s 757 mmHg 90%
06:00 +14°C° 0 mm 2 m/s 757 mmHg 82%
07:00 +15°C° 0 mm 2 m/s 757 mmHg 75%
08:00 +17°C° 0 mm 2 m/s 757 mmHg 67%
09:00 +18°C° 0.1 mm 2 m/s 757 mmHg 64%
10:00 +19°C° 0.1 mm 3 m/s 757 mmHg 60%
11:00 +20°C° 0.1 mm 3 m/s 756 mmHg 56%
12:00 +21°C° 0 mm 3 m/s 756 mmHg 53%
13:00 +21°C° 0 mm 3 m/s 756 mmHg 50%
14:00 +23°C° 0 mm 2 m/s 755 mmHg 47%
15:00 +23°C° 0 mm 2 m/s 755 mmHg 47%
16:00 +23°C° 0 mm 2 m/s 755 mmHg 47%
17:00 +23°C° 0 mm 2 m/s 754 mmHg 47%
18:00 +20°C° 0 mm 2 m/s 754 mmHg 54%
19:00 +18°C° 0 mm 2 m/s 754 mmHg 62%
20:00 +18°C° 0 mm 1 m/s 754 mmHg 70%
21:00 +15°C° 0 mm 2 m/s 755 mmHg 75%
22:00 +14°C° 0 mm 2 m/s 755 mmHg 80%
23:00 +13°C° 0 mm 2 m/s 755 mmHg 85%

14 Julho, Terça-feira

Tempo Temperatura Precipitação Vento Pressão Humidade
00:00 +13°C° 0 mm 2 m/s 755 mmHg 88%
01:00 +11°C° 0 mm 3 m/s 755 mmHg 91%
02:00 +11°C° 0 mm 3 m/s 755 mmHg 94%
03:00 +11°C° 0 mm 3 m/s 755 mmHg 93%
04:00 +11°C° 0 mm 3 m/s 755 mmHg 91%
05:00 +11°C° 0 mm 3 m/s 755 mmHg 90%
06:00 +12°C° 0 mm 4 m/s 755 mmHg 83%
07:00 +14°C° 0 mm 4 m/s 755 mmHg 76%
08:00 +15°C° 0 mm 4 m/s 755 mmHg 69%
09:00 +17°C° 0 mm 4 m/s 755 mmHg 60%
10:00 +17°C° 0 mm 5 m/s 755 mmHg 52%
11:00 +19°C° 0 mm 5 m/s 755 mmHg 44%
12:00 +20°C° 0 mm 5 m/s 755 mmHg 44%
13:00 +20°C° 0 mm 4 m/s 755 mmHg 43%
14:00 +21°C° 0 mm 4 m/s 754 mmHg 43%
15:00 +21°C° 0 mm 4 m/s 754 mmHg 44%
16:00 +21°C° 0 mm 3 m/s 754 mmHg 45%
17:00 +21°C° 0 mm 3 m/s 754 mmHg 46%
18:00 +19°C° 0 mm 2 m/s 754 mmHg 56%
19:00 +18°C° 0 mm 2 m/s 754 mmHg 65%
20:00 +16°C° 0 mm 2 m/s 754 mmHg 74%
21:00 +15°C° 0 mm 2 m/s 754 mmHg 76%
22:00 +14°C° 0 mm 2 m/s 755 mmHg 78%
23:00 +13°C° 0 mm 2 m/s 755 mmHg 80%

15 Julho, Quarta-feira

Tempo Temperatura Precipitação Vento Pressão Humidade
00:00 +12°C° 0 mm 2 m/s 755 mmHg 82%
01:00 +10°C° 0 mm 2 m/s 755 mmHg 84%
02:00 +10°C° 0 mm 2 m/s 755 mmHg 86%
03:00 +10°C° 0 mm 2 m/s 755 mmHg 86%
04:00 +10°C° 0 mm 2 m/s 755 mmHg 87%
05:00 +10°C° 0 mm 2 m/s 755 mmHg 88%
06:00 +13°C° 0 mm 2 m/s 755 mmHg 79%
07:00 +16°C° 0 mm 3 m/s 755 mmHg 70%
08:00 +18°C° 0 mm 3 m/s 755 mmHg 61%
09:00 +19°C° 0 mm 3 m/s 755 mmHg 56%
10:00 +20°C° 0 mm 3 m/s 755 mmHg 52%
11:00 +22°C° 0 mm 3 m/s 755 mmHg 47%
12:00 +22°C° 0 mm 3 m/s 755 mmHg 46%
13:00 +22°C° 0 mm 3 m/s 755 mmHg 45%
14:00 +24°C° 0 mm 3 m/s 755 mmHg 45%
15:00 +24°C° 0 mm 2 m/s 755 mmHg 47%
16:00 +24°C° 0 mm 2 m/s 755 mmHg 49%
17:00 +24°C° 0 mm 1 m/s 755 mmHg 50%
18:00 +22°C° 0 mm 1 m/s 755 mmHg 58%
19:00 +21°C° 0 mm 1 m/s 755 mmHg 65%
20:00 +17°C° 0 mm 0 m/s 755 mmHg 72%
21:00 +16°C° 0 mm 0 m/s 755 mmHg 74%
22:00 +16°C° 0 mm 1 m/s 755 mmHg 77%
23:00 +15°C° 0 mm 1 m/s 755 mmHg 79%
Mostrar mais